,,,PA_Meas_PMT16A,,PR_Meas_QMR101_102,,RH_Meas_QMH101,,SR_Meas_QMS101,,TA_Meas_QMH101,,GenWind,,GenWind,
date,time,status,PA,status,PR,status,RH,status,SR,status,TA,status,DirAvg,status,SpdAvg,
2009-11-22, 00:00:04,VALID,998.533,VALID,0,VALID,88.7935,VALID,0,VALID,24.4623,VALID,145,VALID,0.850391,
2009-11-22, 00:01:04,VALID,998.53,VALID,0,VALID,88.557,VALID,0,VALID,24.4214,VALID,126,VALID,0.950391,
2009-11-22, 00:02:04,VALID,998.557,VALID,0,VALID,88.8851,VALID,0,VALID,24.4019,VALID,123,VALID,0.482812,
2009-11-22, 00:03:04,VALID,998.556,VALID,0,VALID,88.763,VALID,0,VALID,24.3824,VALID,107,VALID,0.959375,
2009-11-22, 00:04:04,VALID,998.561,VALID,0,VALID,88.5494,VALID,0,VALID,24.3824,VALID,122,VALID,0.905859,
2009-11-22, 00:05:04,VALID,998.604,VALID,0,VALID,88.8469,VALID,0,VALID,24.4019,VALID,113,VALID,0.612109,
2009-11-22, 00:06:04,VALID,998.588,VALID,0,VALID,88.5112,VALID,0,VALID,24.4037,VALID,104,VALID,0.747656,
2009-11-22, 00:07:04,VALID,998.57,VALID,0,VALID,88.5875,VALID,0.112286,VALID,24.4019,VALID,107,VALID,1.14023,
2009-11-22, 00:08:04,VALID,998.562,VALID,0,VALID,89.0453,VALID,0.112286,VALID,24.4233,VALID,117,VALID,0.84375,
2009-11-22, 00:09:04,VALID,998.535,VALID,0,VALID,88.7859,VALID,0,VALID,24.4019,VALID,137,VALID,1.05195,
2009-11-22, 00:10:04,VALID,998.484,VALID,0,VALID,88.8393,VALID,0,VALID,24.4019,VALID,127,VALID,1.47266,
2009-11-22, 00:11:04,VALID,998.461,VALID,0,VALID,88.8317,VALID,0,VALID,24.4233,VALID,142,VALID,1.29688,
2009-11-22, 00:12:04,VALID,998.451,VALID,0,VALID,89.1216,VALID,0,VALID,24.4214,VALID,152,VALID,1.22305,
2009-11-22, 00:13:04,VALID,998.48,VALID,0,VALID,88.8622,VALID,0,VALID,24.4019,VALID,144,VALID,1.36953,
2009-11-22, 00:14:04,VALID,998.478,VALID,0,VALID,88.8088,VALID,0,VALID,24.4428,VALID,149,VALID,1.20703,
2009-11-22, 00:15:04,VALID,998.527,VALID,0,VALID,89.0453,VALID,0,VALID,24.4214,VALID,147,VALID,0.867578,
2009-11-22, 00:16:04,VALID,998.527,VALID,0,VALID,88.5723,VALID,0.112286,VALID,24.4214,VALID,136,VALID,1.09414,
2009-11-22, 00:17:04,VALID,998.554,VALID,0,VALID,88.4197,VALID,0,VALID,24.4019,VALID,153,VALID,1.03711,
2009-11-22, 00:18:04,VALID,998.543,VALID,0,VALID,88.6257,VALID,0,VALID,24.4409,VALID,158,VALID,1.00352,
2009-11-22, 00:19:04,VALID,998.519,VALID,0,VALID,88.8164,VALID,0,VALID,24.4604,VALID,151,VALID,0.683594,
2009-11-22, 00:20:04,VALID,998.507,VALID,0,VALID,88.9232,VALID,0,VALID,24.4409,VALID,153,VALID,0.390625,
2009-11-22, 00:21:04,VALID,998.516,VALID,0,VALID,89.0606,VALID,0,VALID,24.4409,VALID,153,VALID,0.495313,
2009-11-22, 00:22:04,VALID,998.49,VALID,0,VALID,89.2818,VALID,0,VALID,24.4409,VALID,148,VALID,0.167187,
2009-11-22, 00:23:04,VALID,998.491,VALID,0,VALID,89.4191,VALID,0,VALID,24.4428,VALID,148,VALID,0.0503906,
2009-11-22, 00:24:04,VALID,998.46,VALID,0,VALID,89.3352,VALID,0.112286,VALID,24.4214,VALID,148,VALID,0.429297,
2009-11-22, 00:25:04,VALID,998.433,VALID,0,VALID,89.0224,VALID,0,VALID,24.4019,VALID,149,VALID,0.407813,
2009-11-22, 00:26:04,VALID,998.409,VALID,0,VALID,89.1903,VALID,0,VALID,24.4409,VALID,206,VALID,0.332031,
2009-11-22, 00:27:04,VALID,998.392,VALID,0,VALID,88.3205,VALID,0.112286,VALID,24.48,VALID,212,VALID,0.658984,
2009-11-22, 00:28:04,VALID,998.428,VALID,0,VALID,89.4726,VALID,0,VALID,24.558,VALID,263,VALID,0.586328,
2009-11-22, 00:29:04,VALID,998.416,VALID,0,VALID,88.6943,VALID,0,VALID,24.5385,VALID,280,VALID,0.515234,
2009-11-22, 00:30:04,VALID,998.429,VALID,0,VALID,88.8317,VALID,0,VALID,24.5599,VALID,295,VALID,0.597266,
2009-11-22, 00:31:04,VALID,998.45,VALID,0,VALID,89.1674,VALID,0.112286,VALID,24.5385,VALID,317,VALID,0.679297,
2009-11-22, 00:32:04,VALID,998.449,VALID,0,VALID,89.6328,VALID,0.112286,VALID,24.519,VALID,326,VALID,0.903906,
2009-11-22, 00:33:04,VALID,998.501,VALID,0,VALID,89.9532,VALID,0,VALID,24.4995,VALID,337,VALID,1.20781,
2009-11-22, 00:34:04,VALID,998.465,VALID,0,VALID,90.2584,VALID,0,VALID,24.4409,VALID,347,VALID,1.36875,
2009-11-22, 00:35:04,VALID,998.522,VALID,0,VALID,90.2126,VALID,0,VALID,24.4019,VALID,350,VALID,1.63594,
2009-11-22, 00:36:04,VALID,998.513,VALID,0,VALID,90.2584,VALID,0,VALID,24.3824,VALID,352,VALID,1.93906,
2009-11-22, 00:37:04,VALID,998.544,VALID,0,VALID,90.5941,VALID,0,VALID,24.4037,VALID,354,VALID,1.57813,
2009-11-22, 00:38:04,VALID,998.545,VALID,0,VALID,90.2203,VALID,0,VALID,24.3629,VALID,345,VALID,1.44687,
2009-11-22, 00:39:04,VALID,998.519,VALID,0,VALID,90.1363,VALID,0,VALID,24.3647,VALID,350,VALID,2.1832,
2009-11-22, 00:40:04,VALID,998.543,VALID,0,VALID,90.2431,VALID,0,VALID,24.3433,VALID,348,VALID,1.2707,
2009-11-22, 00:41:04,VALID,998.504,VALID,0,VALID,89.8922,VALID,0,VALID,24.3043,VALID,1,VALID,1.35859,
2009-11-22, 00:42:04,VALID,998.475,VALID,0,VALID,89.6251,VALID,0,VALID,24.3238,VALID,29,VALID,1.21445,
2009-11-22, 00:43:04,VALID,998.531,VALID,0,VALID,89.7549,VALID,0,VALID,24.3647,VALID,21,VALID,0.907812,
2009-11-22, 00:44:04,VALID,998.486,VALID,0,VALID,89.9456,VALID,0,VALID,24.3647,VALID,19,VALID,0.710156,
2009-11-22, 00:45:04,VALID,998.476,VALID,0,VALID,90.1211,VALID,0,VALID,24.3433,VALID,23,VALID,0.629297,
2009-11-22, 00:46:04,VALID,998.444,VALID,0,VALID,89.9074,VALID,0,VALID,24.3452,VALID,47,VALID,0.635938,
2009-11-22, 00:47:04,VALID,998.457,VALID,0,VALID,89.6557,VALID,0,VALID,24.3452,VALID,61,VALID,0.307422,
2009-11-22, 00:48:04,VALID,998.443,VALID,0,VALID,89.4573,VALID,0,VALID,24.3238,VALID,61,VALID,0.117969,
2009-11-22, 00:49:04,VALID,998.444,VALID,0,VALID,89.587,VALID,0,VALID,24.3452,VALID,61,VALID,0.292969,
2009-11-22, 00:50:04,VALID,998.434,VALID,0,VALID,89.2742,VALID,0,VALID,24.3452,VALID,60,VALID,0.713672,
2009-11-22, 00:51:04,VALID,998.402,VALID,0,VALID,89.2284,VALID,0,VALID,24.3842,VALID,36,VALID,0.965625,
2009-11-22, 00:52:04,VALID,998.437,VALID,0,VALID,89.236,VALID,0,VALID,24.4233,VALID,27,VALID,1.15703,
2009-11-22, 00:53:04,VALID,998.466,VALID,0,VALID,89.2742,VALID,0,VALID,24.4428,VALID,26,VALID,0.918359,
2009-11-22, 00:54:04,VALID,998.485,VALID,0,VALID,89.6709,VALID,0,VALID,24.4214,VALID,11,VALID,0.732031,
2009-11-22, 00:55:04,VALID,998.493,VALID,0,VALID,90.06,VALID,0,VALID,24.4623,VALID,17,VALID,0.155859,
2009-11-22, 00:56:04,VALID,998.504,VALID,0,VALID,90.2584,VALID,0,VALID,24.4623,VALID,17,VALID,0.0078125,
2009-11-22, 00:57:04,VALID,998.485,VALID,0,VALID,90.205,VALID,0,VALID,24.4428,VALID,17,VALID,0.0429688,
2009-11-22, 00:58:04,VALID,998.467,VALID,0,VALID,90.1974,VALID,0,VALID,24.4214,VALID,17,VALID,0.296484,
2009-11-22, 00:59:04,VALID,998.433,VALID,0,VALID,90.2126,VALID,0,VALID,24.4428,VALID,17,VALID,0.214844,
2009-11-22, 01:00:04,VALID,998.428,VALID,0,VALID,90.1058,VALID,0,VALID,24.4428,VALID,17,VALID,0,
2009-11-22, 01:01:04,VALID,998.552,VALID,0,VALID,90.0295,VALID,0,VALID,24.4019,VALID,17,VALID,0.128906,
2009-11-22, 01:02:04,VALID,998.641,VALID,0.5,VALID,90.2966,VALID,0,VALID,24.4428,VALID,302,VALID,1.11172,
2009-11-22, 01:03:04,VALID,998.635,VALID,1,VALID,90.884,VALID,0,VALID,24.4428,VALID,318,VALID,1.21133,
2009-11-22, 01:04:04,VALID,998.604,VALID,1,VALID,90.4263,VALID,0,VALID,24.3452,VALID,336,VALID,2.39961,
2009-11-22, 01:05:04,VALID,998.673,VALID,0.5,VALID,90.4949,VALID,0,VALID,24.2671,VALID,314,VALID,1.94961,
2009-11-22, 01:06:04,VALID,998.64,VALID,1.5,VALID,91.1206,VALID,0,VALID,24.1696,VALID,304,VALID,2.55078,
2009-11-22, 01:07:04,VALID,998.591,VALID,2,VALID,91.7767,VALID,0,VALID,24.0311,VALID,336,VALID,1.0457,
2009-11-22, 01:08:04,VALID,998.532,VALID,1,VALID,92.1963,VALID,0,VALID,23.9921,VALID,324,VALID,0.567187,
2009-11-22, 01:09:04,VALID,998.556,VALID,0.5,VALID,92.5015,VALID,0,VALID,23.914,VALID,339,VALID,0.894922,
2009-11-22, 01:10:04,VALID,998.556,VALID,0.5,VALID,92.7304,VALID,0.112286,VALID,23.9159,VALID,318,VALID,0.794141,
2009-11-22, 01:11:04,VALID,998.587,VALID,0,VALID,92.9211,VALID,0,VALID,23.875,VALID,289,VALID,0.890234,
2009-11-22, 01:12:04,VALID,998.62,VALID,0.5,VALID,93.0737,VALID,0,VALID,23.9159,VALID,293,VALID,1.1832,
2009-11-22, 01:13:04,VALID,998.61,VALID,0,VALID,93.1348,VALID,0,VALID,23.8768,VALID,323,VALID,0.858984,
2009-11-22, 01:14:04,VALID,998.597,VALID,0,VALID,93.1805,VALID,0,VALID,23.8573,VALID,331,VALID,0.342578,
2009-11-22, 01:15:04,VALID,998.545,VALID,0.5,VALID,93.2568,VALID,0,VALID,23.8165,VALID,76,VALID,0.726172,
2009-11-22, 01:16:04,VALID,998.536,VALID,0.5,VALID,93.3179,VALID,0,VALID,23.8378,VALID,338,VALID,0.665625,
2009-11-22, 01:17:04,VALID,998.549,VALID,0.5,VALID,93.3484,VALID,0,VALID,23.8165,VALID,238,VALID,0.235156,
2009-11-22, 01:18:04,VALID,998.501,VALID,0.5,VALID,93.4171,VALID,0,VALID,23.8573,VALID,215,VALID,0.855469,
2009-11-22, 01:19:04,VALID,998.451,VALID,0.5,VALID,93.44,VALID,0,VALID,23.8573,VALID,204,VALID,0.734375,
2009-11-22, 01:20:04,VALID,998.43,VALID,0.5,VALID,93.4934,VALID,0,VALID,23.8555,VALID,192,VALID,1.74883,
2009-11-22, 01:21:04,VALID,998.402,VALID,0,VALID,93.5239,VALID,0,VALID,23.875,VALID,216,VALID,2.19414,
2009-11-22, 01:22:04,VALID,998.371,VALID,0.5,VALID,93.5468,VALID,0,VALID,23.9159,VALID,197,VALID,1.80586,
2009-11-22, 01:23:04,VALID,998.324,VALID,0,VALID,93.5468,VALID,0,VALID,23.9354,VALID,193,VALID,2.57617,
2009-11-22, 01:24:04,VALID,998.272,VALID,0.5,VALID,93.5468,VALID,0,VALID,23.9354,VALID,189,VALID,2.25664,
2009-11-22, 01:25:04,VALID,998.244,VALID,0,VALID,93.5468,VALID,0,VALID,23.9354,VALID,180,VALID,2.19414,
2009-11-22, 01:26:04,VALID,998.188,VALID,0.5,VALID,93.6002,VALID,0,VALID,23.914,VALID,182,VALID,2.25156,
2009-11-22, 01:27:04,VALID,998.152,VALID,0.5,VALID,93.5773,VALID,0,VALID,23.9549,VALID,184,VALID,3.17305,
2009-11-22, 01:28:04,VALID,998.108,VALID,0,VALID,93.5849,VALID,0,VALID,23.8945,VALID,186,VALID,2.15664,
2009-11-22, 01:29:04,VALID,998.142,VALID,0,VALID,93.5849,VALID,0,VALID,23.914,VALID,185,VALID,2.8457,
2009-11-22, 01:30:04,VALID,998.145,VALID,0,VALID,93.6765,VALID,0,VALID,23.9939,VALID,175,VALID,2.51406,
2009-11-22, 01:31:04,VALID,998.153,VALID,0,VALID,93.6765,VALID,0,VALID,24.0329,VALID,169,VALID,2.24062,
2009-11-22, 01:32:04,VALID,998.119,VALID,0,VALID,93.6154,VALID,0,VALID,24.0329,VALID,184,VALID,2.7582,
2009-11-22, 01:33:04,VALID,998.09,VALID,0,VALID,93.646,VALID,0,VALID,24.0525,VALID,181,VALID,2.22617,
2009-11-22, 01:34:04,VALID,998.065,VALID,0.5,VALID,93.6383,VALID,0,VALID,24.0311,VALID,178,VALID,2.47734,
2009-11-22, 01:35:04,VALID,998.046,VALID,0,VALID,93.6002,VALID,0,VALID,24.0116,VALID,161,VALID,2.7,
2009-11-22, 01:36:04,VALID,997.987,VALID,0,VALID,93.5849,VALID,0,VALID,23.9921,VALID,157,VALID,2.70313,
2009-11-22, 01:37:04,VALID,997.979,VALID,0,VALID,93.6154,VALID,0,VALID,23.9726,VALID,158,VALID,1.98789,
2009-11-22, 01:38:04,VALID,997.936,VALID,0,VALID,93.6231,VALID,0,VALID,23.9921,VALID,150,VALID,1.71992,
2009-11-22, 01:39:04,VALID,997.916,VALID,0,VALID,93.5544,VALID,0,VALID,23.9939,VALID,154,VALID,1.94609,
2009-11-22, 01:40:04,VALID,997.895,VALID,0,VALID,93.6154,VALID,0,VALID,24.0134,VALID,154,VALID,1.51602,
2009-11-22, 01:41:04,VALID,997.824,VALID,0,VALID,93.6002,VALID,0,VALID,24.0134,VALID,150,VALID,1.72187,
2009-11-22, 01:42:04,VALID,997.819,VALID,0,VALID,93.5391,VALID,0,VALID,23.9726,VALID,158,VALID,2.15039,
2009-11-22, 01:43:04,VALID,997.808,VALID,0,VALID,93.562,VALID,0,VALID,23.9531,VALID,139,VALID,1.36797,
2009-11-22, 01:44:04,VALID,997.797,VALID,0,VALID,93.5544,VALID,0,VALID,23.9531,VALID,138,VALID,1.26953,
2009-11-22, 01:45:04,VALID,997.751,VALID,0,VALID,93.5163,VALID,0,VALID,23.9336,VALID,143,VALID,1.70625,
2009-11-22, 01:46:04,VALID,997.771,VALID,0,VALID,93.5239,VALID,0.112286,VALID,23.914,VALID,145,VALID,1.4582,
2009-11-22, 01:47:04,VALID,997.771,VALID,0,VALID,93.5163,VALID,0,VALID,23.8945,VALID,152,VALID,1.65898,
2009-11-22, 01:48:04,VALID,997.757,VALID,0,VALID,93.4781,VALID,0,VALID,23.8945,VALID,140,VALID,1.37422,
2009-11-22, 01:49:04,VALID,997.741,VALID,0,VALID,93.5544,VALID,0,VALID,23.8945,VALID,146,VALID,1.14141,
2009-11-22, 01:50:04,VALID,997.72,VALID,0,VALID,93.4934,VALID,0.112286,VALID,23.875,VALID,146,VALID,1.59336,
2009-11-22, 01:51:04,VALID,997.728,VALID,0,VALID,93.5239,VALID,0,VALID,23.875,VALID,134,VALID,1.1168,
2009-11-22, 01:52:04,VALID,997.715,VALID,0,VALID,93.5315,VALID,0.112286,VALID,23.8555,VALID,139,VALID,1.27109,
2009-11-22, 01:53:04,VALID,997.716,VALID,0,VALID,93.5239,VALID,0,VALID,23.8963,VALID,130,VALID,1.82773,
2009-11-22, 01:54:04,VALID,997.707,VALID,0,VALID,93.5315,VALID,0,VALID,23.8555,VALID,126,VALID,1.39023,
2009-11-22, 01:55:04,VALID,997.721,VALID,0,VALID,93.501,VALID,0,VALID,23.8555,VALID,120,VALID,2.03945,
2009-11-22, 01:56:04,VALID,997.756,VALID,0,VALID,93.5086,VALID,0,VALID,23.8165,VALID,120,VALID,1.51523,
2009-11-22, 01:57:04,VALID,997.732,VALID,0,VALID,93.5239,VALID,0,VALID,23.836,VALID,100,VALID,1.74023,
2009-11-22, 01:58:04,VALID,997.726,VALID,0,VALID,93.5239,VALID,0.112286,VALID,23.836,VALID,112,VALID,1.91406,
2009-11-22, 01:59:04,VALID,997.725,VALID,0,VALID,93.5163,VALID,0,VALID,23.8573,VALID,103,VALID,2.19688,
2009-11-22, 02:00:04,VALID,997.716,VALID,0,VALID,93.5315,VALID,0,VALID,23.8555,VALID,103,VALID,1.44883,
2009-11-22, 02:01:04,VALID,997.689,VALID,0,VALID,93.562,VALID,0,VALID,23.8945,VALID,100,VALID,1.16367,
2009-11-22, 02:02:04,VALID,997.662,VALID,0,VALID,93.5086,VALID,0,VALID,23.8945,VALID,96,VALID,1.90313,
2009-11-22, 02:03:04,VALID,997.641,VALID,0,VALID,93.4934,VALID,0,VALID,23.9159,VALID,95,VALID,1.78359,
2009-11-22, 02:04:04,VALID,997.635,VALID,0,VALID,93.4628,VALID,0,VALID,23.8945,VALID,87,VALID,1.39844,
2009-11-22, 02:05:04,VALID,997.616,VALID,0,VALID,93.4552,VALID,0,VALID,23.9159,VALID,97,VALID,1.1832,
2009-11-22, 02:06:04,VALID,997.571,VALID,0,VALID,93.4857,VALID,0,VALID,23.9354,VALID,103,VALID,1.06211,
2009-11-22, 02:07:04,VALID,997.542,VALID,0,VALID,93.4781,VALID,0,VALID,23.9354,VALID,99,VALID,0.985937,
2009-11-22, 02:08:04,VALID,997.506,VALID,0,VALID,93.4857,VALID,0,VALID,23.9159,VALID,94,VALID,1.18242,
2009-11-22, 02:09:04,VALID,997.521,VALID,0,VALID,93.44,VALID,0,VALID,23.8945,VALID,94,VALID,1.03437,
2009-11-22, 02:10:04,VALID,997.505,VALID,0,VALID,93.4552,VALID,0,VALID,23.8963,VALID,99,VALID,1.225,
2009-11-22, 02:11:04,VALID,997.486,VALID,0,VALID,93.5086,VALID,0,VALID,23.9354,VALID,94,VALID,0.771875,
2009-11-22, 02:12:04,VALID,997.485,VALID,0,VALID,93.501,VALID,0,VALID,23.9336,VALID,100,VALID,0.966406,
2009-11-22, 02:13:04,VALID,997.474,VALID,0,VALID,93.4934,VALID,0,VALID,23.9336,VALID,102,VALID,1.03555,
2009-11-22, 02:14:04,VALID,997.467,VALID,0,VALID,93.4781,VALID,0,VALID,23.9336,VALID,110,VALID,1.14453,
2009-11-22, 02:15:04,VALID,997.474,VALID,0,VALID,93.4857,VALID,0,VALID,23.9744,VALID,124,VALID,0.516406,
2009-11-22, 02:16:04,VALID,997.491,VALID,0,VALID,93.5163,VALID,0,VALID,23.9531,VALID,123,VALID,0.222266,
2009-11-22, 02:17:04,VALID,997.536,VALID,0,VALID,93.5163,VALID,0.112286,VALID,23.9726,VALID,124,VALID,0.536719,
2009-11-22, 02:18:04,VALID,997.542,VALID,0,VALID,93.4857,VALID,0,VALID,23.914,VALID,118,VALID,0.470703,
2009-11-22, 02:19:04,VALID,997.546,VALID,0,VALID,93.5163,VALID,0,VALID,23.914,VALID,138,VALID,0.508984,
2009-11-22, 02:20:04,VALID,997.525,VALID,0,VALID,93.5544,VALID,0,VALID,23.9354,VALID,138,VALID,0,
2009-11-22, 02:21:04,VALID,997.563,VALID,0,VALID,93.5391,VALID,0,VALID,23.914,VALID,123,VALID,0.269141,
2009-11-22, 02:22:04,VALID,997.606,VALID,0,VALID,93.5926,VALID,0,VALID,23.9336,VALID,302,VALID,0.754297,
2009-11-22, 02:23:04,VALID,997.64,VALID,0,VALID,93.646,VALID,0,VALID,23.9726,VALID,302,VALID,0.830469,
2009-11-22, 02:24:04,VALID,997.65,VALID,0,VALID,93.6612,VALID,0,VALID,23.9921,VALID,304,VALID,0.827344,
2009-11-22, 02:25:04,VALID,997.682,VALID,0,VALID,93.6688,VALID,0,VALID,23.9726,VALID,310,VALID,0.753516,
2009-11-22, 02:26:04,VALID,997.672,VALID,0,VALID,93.6841,VALID,0,VALID,24.0134,VALID,301,VALID,0.599609,
2009-11-22, 02:27:04,VALID,997.651,VALID,0,VALID,93.6841,VALID,0,VALID,23.9726,VALID,299,VALID,0.498437,
2009-11-22, 02:28:04,VALID,997.637,VALID,0,VALID,93.6765,VALID,0,VALID,23.9726,VALID,299,VALID,0.0234375,
2009-11-22, 02:29:04,VALID,997.647,VALID,0,VALID,93.707,VALID,0,VALID,23.9531,VALID,299,VALID,0.136719,
2009-11-22, 02:30:04,VALID,997.636,VALID,0,VALID,93.6841,VALID,0,VALID,23.9726,VALID,299,VALID,0.281641,
2009-11-22, 02:31:04,VALID,997.625,VALID,0,VALID,93.7146,VALID,0,VALID,23.9531,VALID,299,VALID,0.279687,
2009-11-22, 02:32:04,VALID,997.612,VALID,0,VALID,93.7146,VALID,0,VALID,23.9531,VALID,299,VALID,0.158594,
2009-11-22, 02:33:04,VALID,997.618,VALID,0,VALID,93.7528,VALID,0.112286,VALID,23.9336,VALID,299,VALID,0.280078,
2009-11-22, 02:34:04,VALID,997.624,VALID,0,VALID,93.7451,VALID,0,VALID,23.9336,VALID,299,VALID,0.220313,
2009-11-22, 02:35:04,VALID,997.628,VALID,0,VALID,93.7833,VALID,0,VALID,23.9531,VALID,299,VALID,0.373437,
2009-11-22, 02:36:04,VALID,997.648,VALID,0,VALID,93.7757,VALID,0,VALID,23.9336,VALID,299,VALID,0.491016,
2009-11-22, 02:37:04,VALID,997.658,VALID,0,VALID,93.7757,VALID,0,VALID,23.9531,VALID,332,VALID,0.617188,
2009-11-22, 02:38:04,VALID,997.705,VALID,0,VALID,93.8138,VALID,0,VALID,23.9744,VALID,26,VALID,0.933594,
2009-11-22, 02:39:04,VALID,997.708,VALID,0,VALID,93.7757,VALID,0,VALID,23.9726,VALID,29,VALID,1.23516,
2009-11-22, 02:40:04,VALID,997.703,VALID,0,VALID,93.7909,VALID,0,VALID,23.9531,VALID,33,VALID,1.1707,
2009-11-22, 02:41:04,VALID,997.717,VALID,0,VALID,93.7985,VALID,0.112286,VALID,23.9531,VALID,21,VALID,1.73789,
2009-11-22, 02:42:04,VALID,997.726,VALID,0,VALID,93.7528,VALID,0,VALID,23.9531,VALID,4,VALID,1.63086,
2009-11-22, 02:43:04,VALID,997.678,VALID,0,VALID,93.8138,VALID,0.112286,VALID,23.9726,VALID,1,VALID,1.82422,
2009-11-22, 02:44:04,VALID,997.657,VALID,0,VALID,93.8062,VALID,0,VALID,23.9921,VALID,351,VALID,1.37695,
2009-11-22, 02:45:04,VALID,997.626,VALID,0,VALID,93.7833,VALID,0,VALID,23.9726,VALID,356,VALID,1.26406,
2009-11-22, 02:46:04,VALID,997.626,VALID,0,VALID,93.7757,VALID,0,VALID,23.9531,VALID,358,VALID,1.06172,
2009-11-22, 02:47:04,VALID,997.608,VALID,0,VALID,93.7757,VALID,0,VALID,23.9336,VALID,353,VALID,1.06211,
2009-11-22, 02:48:04,VALID,997.62,VALID,0,VALID,93.7757,VALID,0,VALID,23.9354,VALID,1,VALID,0.750781,
2009-11-22, 02:49:04,VALID,997.623,VALID,0,VALID,93.7375,VALID,0,VALID,23.9354,VALID,29,VALID,1.00156,
2009-11-22, 02:50:04,VALID,997.586,VALID,0,VALID,93.7528,VALID,0,VALID,23.875,VALID,24,VALID,0.948828,
2009-11-22, 02:51:04,VALID,997.584,VALID,0,VALID,93.7604,VALID,0,VALID,23.8768,VALID,41,VALID,1.08438,
2009-11-22, 02:52:04,VALID,997.52,VALID,0,VALID,93.7223,VALID,0,VALID,23.8555,VALID,38,VALID,1.22383,
2009-11-22, 02:53:04,VALID,997.497,VALID,0,VALID,93.7451,VALID,0,VALID,23.8768,VALID,48,VALID,1.25352,
2009-11-22, 02:54:04,VALID,997.484,VALID,0,VALID,93.768,VALID,0,VALID,23.8945,VALID,41,VALID,1.42148,
2009-11-22, 02:55:04,VALID,997.526,VALID,0,VALID,93.7451,VALID,0.112286,VALID,23.8945,VALID,33,VALID,1.59609,
2009-11-22, 02:56:04,VALID,997.535,VALID,0,VALID,93.7451,VALID,0,VALID,23.914,VALID,36,VALID,1.36016,
2009-11-22, 02:57:04,VALID,997.589,VALID,0,VALID,93.7375,VALID,0,VALID,23.914,VALID,28,VALID,1.64922,
2009-11-22, 02:58:04,VALID,997.6,VALID,0,VALID,93.7299,VALID,0,VALID,23.9159,VALID,28,VALID,1.51133,
2009-11-22, 02:59:04,VALID,997.593,VALID,0,VALID,93.6994,VALID,0,VALID,23.8945,VALID,32,VALID,1.97305,
2009-11-22, 03:00:04,VALID,997.609,VALID,0,VALID,93.6841,VALID,0,VALID,23.9354,VALID,34,VALID,2.54805,
2009-11-22, 03:01:04,VALID,997.671,VALID,0,VALID,93.6994,VALID,0,VALID,23.9567,VALID,33,VALID,2.28437,
2009-11-22, 03:02:04,VALID,997.701,VALID,0,VALID,93.7146,VALID,0,VALID,23.9762,VALID,31,VALID,1.84102,
2009-11-22, 03:03:04,VALID,997.71,VALID,0,VALID,93.6383,VALID,0,VALID,23.9567,VALID,35,VALID,2.28711,
2009-11-22, 03:04:04,VALID,997.741,VALID,0,VALID,93.6765,VALID,0,VALID,23.9354,VALID,33,VALID,1.44062,
2009-11-22, 03:05:04,VALID,997.748,VALID,0,VALID,93.6536,VALID,0,VALID,23.9567,VALID,34,VALID,1.45,
2009-11-22, 03:06:04,VALID,997.734,VALID,0,VALID,93.6612,VALID,0,VALID,23.9372,VALID,31,VALID,1.16992,
2009-11-22, 03:07:04,VALID,997.778,VALID,0,VALID,93.6536,VALID,0,VALID,23.9354,VALID,27,VALID,0.89375,
2009-11-22, 03:08:04,VALID,997.748,VALID,0,VALID,93.6765,VALID,0,VALID,23.9354,VALID,28,VALID,0.930859,
2009-11-22, 03:09:04,VALID,997.787,VALID,0,VALID,93.6841,VALID,0,VALID,23.9354,VALID,23,VALID,1.18984,
2009-11-22, 03:10:04,VALID,997.767,VALID,0,VALID,93.6688,VALID,0,VALID,23.9567,VALID,21,VALID,1.24219,
2009-11-22, 03:11:04,VALID,997.841,VALID,0,VALID,93.6765,VALID,0,VALID,23.9567,VALID,17,VALID,1.31211,
2009-11-22, 03:12:04,VALID,997.836,VALID,0,VALID,93.6536,VALID,0,VALID,23.9354,VALID,14,VALID,1.48047,
2009-11-22, 03:13:04,VALID,997.905,VALID,0,VALID,93.6612,VALID,0,VALID,23.9159,VALID,11,VALID,1.17461,
2009-11-22, 03:14:04,VALID,997.918,VALID,0,VALID,93.6917,VALID,0,VALID,23.9567,VALID,10,VALID,0.635547,
2009-11-22, 03:15:04,VALID,997.935,VALID,0,VALID,93.6917,VALID,0,VALID,23.9567,VALID,6,VALID,0.928125,
2009-11-22, 03:16:04,VALID,997.962,VALID,0,VALID,93.6688,VALID,0,VALID,23.8945,VALID,4,VALID,0.682422,
2009-11-22, 03:17:04,VALID,997.977,VALID,0,VALID,93.707,VALID,0,VALID,23.9159,VALID,344,VALID,0.698828,
2009-11-22, 03:18:04,VALID,998.016,VALID,0,VALID,93.6841,VALID,0,VALID,23.8963,VALID,344,VALID,0.589844,
2009-11-22, 03:19:04,VALID,998.007,VALID,0,VALID,93.6917,VALID,0.112286,VALID,23.875,VALID,344,VALID,0.444531,
2009-11-22, 03:20:04,VALID,998.01,VALID,0,VALID,93.6917,VALID,0,VALID,23.8963,VALID,340,VALID,0.448828,
2009-11-22, 03:21:04,VALID,998.031,VALID,0,VALID,93.7146,VALID,0,VALID,23.875,VALID,302,VALID,0.601172,
2009-11-22, 03:22:04,VALID,998.007,VALID,0,VALID,93.7146,VALID,0,VALID,23.8945,VALID,289,VALID,0.434375,
2009-11-22, 03:23:04,VALID,997.998,VALID,0,VALID,93.7299,VALID,0,VALID,23.8945,VALID,282,VALID,0.35,
2009-11-22, 03:24:04,VALID,997.976,VALID,0,VALID,93.7299,VALID,0,VALID,23.8963,VALID,282,VALID,0.325781,
2009-11-22, 03:25:04,VALID,997.985,VALID,0,VALID,93.7375,VALID,0,VALID,23.8963,VALID,282,VALID,0.129688,
2009-11-22, 03:26:04,VALID,997.969,VALID,0,VALID,93.7528,VALID,0,VALID,23.875,VALID,282,VALID,0.221094,
2009-11-22, 03:27:04,VALID,997.966,VALID,0,VALID,93.7528,VALID,0,VALID,23.9159,VALID,282,VALID,0,
2009-11-22, 03:28:04,VALID,997.986,VALID,0,VALID,93.7375,VALID,0,VALID,23.9549,VALID,282,VALID,0,
2009-11-22, 03:29:04,VALID,998.016,VALID,0,VALID,93.7757,VALID,0,VALID,23.914,VALID,282,VALID,0,
2009-11-22, 03:30:04,VALID,998.05,VALID,0,VALID,93.7909,VALID,0,VALID,23.9549,VALID,283,VALID,0.469922,
2009-11-22, 03:31:04,VALID,998.015,VALID,0,VALID,93.7833,VALID,0,VALID,23.914,VALID,319,VALID,0.534375,
2009-11-22, 03:32:04,VALID,997.971,VALID,0,VALID,93.7909,VALID,0,VALID,23.914,VALID,325,VALID,0.560547,
2009-11-22, 03:33:04,VALID,997.975,VALID,0,VALID,93.7909,VALID,0,VALID,23.9336,VALID,330,VALID,0.667969,
2009-11-22, 03:34:04,VALID,997.976,VALID,0,VALID,93.7985,VALID,0,VALID,23.9159,VALID,330,VALID,0.540625,
2009-11-22, 03:35:04,VALID,997.993,VALID,0,VALID,93.8138,VALID,0,VALID,23.9354,VALID,330,VALID,0.337109,
2009-11-22, 03:36:04,VALID,998.015,VALID,0,VALID,93.7985,VALID,0,VALID,23.914,VALID,330,VALID,0.235938,
2009-11-22, 03:37:04,VALID,998.016,VALID,0,VALID,93.7909,VALID,0,VALID,23.9354,VALID,330,VALID,0,
2009-11-22, 03:38:04,VALID,998.068,VALID,0,VALID,93.7757,VALID,0,VALID,23.8945,VALID,330,VALID,0,
2009-11-22, 03:39:04,VALID,998.1,VALID,0,VALID,93.7985,VALID,0,VALID,23.8945,VALID,330,VALID,0,
2009-11-22, 03:40:04,VALID,998.128,VALID,0,VALID,93.7985,VALID,0,VALID,23.8945,VALID,330,VALID,0,
2009-11-22, 03:41:04,VALID,998.177,VALID,0,VALID,93.8138,VALID,0,VALID,23.8963,VALID,330,VALID,0,
2009-11-22, 03:42:04,VALID,998.217,VALID,0,VALID,93.8214,VALID,0,VALID,23.875,VALID,330,VALID,0,
2009-11-22, 03:43:04,VALID,998.253,VALID,0,VALID,93.8291,VALID,0,VALID,23.8945,VALID,330,VALID,0,
2009-11-22, 03:44:04,VALID,998.259,VALID,0,VALID,93.8443,VALID,0,VALID,23.8945,VALID,330,VALID,0.231641,
2009-11-22, 03:45:04,VALID,998.253,VALID,0,VALID,93.852,VALID,0,VALID,23.8945,VALID,330,VALID,0.205859,